Location: Kuffner-Sternwarte
(48.2130°N, 16.2960°E)
Time: 18:27:53
(UTC+02:00)

COROT - Pass Details

Date: 18 January 2018
Orbit: 600 x 889 km, 90.0° (Epoch: 21 April)

Event Time Altitude Azimuth Distance (km) Brightness Sun altitude
Enters shadow 04:22:39 - 9° (N) 2,908 9.2 -32.1°
Exits shadow 04:29:46 33° 108° (ESE) 1,048 7.1 -30.9°
Drops below altitude 10° 04:33:04 10° 153° (SSE) 2,015 8.4 -30.4°
Sets 04:35:29 0° 162° (SSE) 2,955 9.2 -30.0°
